Tracking 20370 objects as of 20-Feb-2020
HD Live streaming from Space Station
objects crossing your sky now
Track the group of recently launched Starlink satellites

COSMOS 1619

Track COSMOS 1619 now!
10-day predictions
COSMOS 1619 is classified as:


NORAD ID: 15471
Int'l Code: 1985-003C
Perigee: 1,390.2 km
Apogee: 1,418.9 km
Inclination: 82.6 °
Period: 113.7 minutes
Semi major axis: 7775 km
RCS: 1.1254 m2 (large)
Launch date: January 15, 1985
Source: Commonwealth of Independent States (former USSR) (CIS)
Launch site: PLESETSK MISSILE AND SPACE COMPLEX (PKMTR)
aabbcc
Your satellite tracking list
Your tracking list is empty




NASA's NSSDC Master Catalog

Two Line Element Set (TLE):
1 15471U 85003C   20050.54944352 +.00000006 +00000-0 -22874-4 0  9991
2 15471 082.6031 081.2664 0018459 275.2085 198.0123 12.66203857621747
Source of the keplerian elements: AFSPC